[[{"header":{"parameterUnit":"m.s-1","parameterCategory":2,"la1":30.2991,"la2":30.254,"lo1":-89.0895,"lo2":-89.0444,"dy":0.0017,"dx":0.0017,"nx":28,"ny":28,"refTime":"2026-02-26T03:00:00:Z","depth":"0","parameterNumber":2,"parameterNumberName":"U-component_of_CURRENTS"},"data":[0,0,0,0,0,0,0,0,0,0,0,0,0,0,0,0,0,0,0,0,0,0,0,0,0,0,0,0,0,0,0,0,0,0,0,0,0,0,0,0,0,0,0,0,0,0,0,0,0,0,0,0,0,0,0,0,0,0,-0.2236,-0.2235,0,-0.2167,-0.2166,-0.2165,-0.2113,-0.2113,-0.2113,-0.2113,-0.1986,-0.1982,-0.1979,0,0,0,0,0,0,0,0,0,0,0,0,0,-0.2324,-0.2322,-0.2236,-0.2235,-0.2235,-0.2168,-0.2166,-0.2165,-0.2113,-0.2113,-0.2113,-0.2113,-0.1987,-0.1983,-0.1979,0,0,0,0,0,0,0,0,0,0,0,0,0,-0.227,-0.2322,-0.2236,-0.2204,-0.22,-0.2168,-0.2166,-0.2165,-0.2113,-0.2113,-0.2113,-0.2113,-0.1988,-0.1983,-0.1978,-0.1952,0,0,-0.1963,-0.1961,0,0,0,0,0,0,0,0,-0.2273,-0.2266,-0.2209,-0.2206,-0.2202,-0.2152,-0.2151,-0.2092,-0.2113,-0.2142,-0.2113,-0.2113,-0.2038,-0.2029,-0.2012,-0.1946,-0.194,-0.1963,-0.196,-0.1958,-0.1956,0,0,0,0,0,0,0,-0.2277,-0.2269,-0.2205,-0.2208,-0.2204,-0.2194,-0.2186,-0.2139,-0.2088,-0.214,-0.2137,-0.2135,-0.2036,-0.2017,-0.2009,-0.1938,-0.1963,-0.1959,-0.1956,-0.1954,-0.1925,-0.1928,0,0,0,0,0,0,-0.2293,-0.2272,-0.2207,-0.2203,-0.2242,-0.2193,-0.2183,-0.2165,-0.209,-0.208,-0.2136,-0.2133,-0.2026,-0.2015,-0.2004,-0.2039,-0.1958,-0.1953,-0.195,-0.1923,-0.1926,-0.1928,0,0,0,0,0,0,-0.2295,-0.2287,-0.221,-0.2241,-0.223,-0.2192,-0.2172,-0.2164,-0.2145,-0.2088,-0.2076,-0.2125,-0.2025,-0.2011,-0.1993,-0.2031,-0.1951,-0.1947,-0.1921,-0.1924,-0.1927,-0.2063,0,0,0,0,0,0,-0.2297,-0.2288,-0.2274,-0.2241,-0.2229,-0.222,-0.2172,-0.2163,-0.2146,-0.2142,-0.2075,-0.2063,-0.2024,-0.2002,-0.1989,-0.2023,-0.1943,-0.1918,-0.1922,-0.1926,-0.2056,-0.2071,-0.2083,0,0,0,0,0,-0.23,-0.2292,-0.2273,-0.2266,-0.2213,-0.2222,-0.2216,-0.2185,-0.2146,-0.216,-0.2117,-0.2065,-0.2019,-0.1999,-0.1984,-0.2017,-0.1916,-0.1921,-0.1926,-0.205,-0.2068,-0.2083,0,0,0,0,0,0,-0.232,-0.2285,-0.2264,-0.2242,-0.2246,-0.2215,-0.221,-0.2187,-0.2159,-0.2143,-0.2081,-0.2069,-0.207,-0.2025,-0.2005,-0.2024,-0.1963,-0.1965,-0.2062,-0.2078,-0.2092,-0.2105,-0.1939,0,0,0,0,0,-0.2319,-0.2295,-0.2284,-0.2264,-0.2268,-0.2236,-0.2227,-0.2214,-0.2189,-0.2175,-0.2134,-0.2094,-0.2078,-0.2064,-0.2037,-0.2035,-0.1981,-0.2051,-0.2065,-0.2077,-0.208,-0.206,-0.2072,-0.1945,-0.1945,-0.1944,0,0,-0.2313,-0.2294,-0.2275,-0.2267,-0.2251,-0.2281,-0.2229,-0.2229,-0.2249,-0.2164,-0.2165,-0.2132,-0.2088,-0.2103,-0.2099,-0.2069,-0.2081,-0.2083,-0.2094,-0.209,-0.2066,-0.2078,-0.2089,-0.1948,-0.1947,-0.1947,0,0,-0.2326,-0.2283,-0.229,-0.2304,-0.2306,-0.2299,-0.2306,-0.2292,-0.2282,-0.2288,-0.2241,-0.2239,-0.2196,-0.2192,-0.2178,-0.2248,-0.2154,-0.2236,-0.2313,-0.2295,-0.2305,-0.2313,-0.2242,-0.2243,-0.2244,-0.2244,-0.2245,0,-0.2322,-0.2331,-0.2298,-0.2334,-0.2349,-0.2317,-0.2359,-0.2353,-0.2337,-0.2334,-0.231,-0.2275,-0.2246,-0.2265,-0.2307,-0.2279,-0.2229,-0.2254,-0.2312,-0.2319,-0.2325,-0.2251,-0.225,-0.2252,-0.2251,-0.225,-0.2249,0,-0.2364,-0.2379,-0.2389,-0.2417,-0.2435,-0.2461,-0.2469,-0.2476,-0.2454,-0.2445,-0.245,-0.2417,-0.2395,-0.2403,-0.2378,-0.2415,-0.235,-0.2331,-0.2269,-0.2346,-0.2262,-0.2259,-0.2262,-0.2259,-0.2257,-0.2255,0,0,-0.2324,-0.2404,-0.2406,-0.2441,-0.2481,-0.2495,-0.2542,-0.2572,-0.2565,-0.2573,-0.2568,-0.2592,-0.2551,-0.2535,-0.25,-0.2504,-0.2514,-0.2447,-0.2443,-0.2375,-0.2429,-0.2312,-0.2295,-0.2501,-0.2502,-0.2503,-0.2347,0,-0.2367,-0.2463,-0.2485,-0.256,-0.2609,-0.2612,-0.2643,-0.266,-0.2648,-0.2633,-0.2623,-0.2596,-0.2605,-0.2574,-0.2596,-0.2521,-0.2514,-0.2555,-0.2367,-0.236,-0.2246,-0.2292,-0.221,-0.2059,-0.2343,-0.2342,-0.2341,0,-0.2398,-0.2463,-0.2565,-0.2628,-0.2642,-0.2676,-0.2695,-0.2717,-0.2708,-0.2691,-0.2691,-0.2643,-0.2653,-0.2631,-0.2583,-0.2602,-0.2538,-0.2487,-0.2479,-0.2319,-0.2238,-0.2032,-0.204,-0.2039,-0.2335,-0.2336,-0.2336,0,-0.2389,-0.2498,-0.2581,-0.2611,-0.2689,-0.2711,-0.2727,-0.2732,-0.2682,-0.2704,-0.2636,-0.2676,-0.2593,-0.2602,-0.251,-0.2543,-0.2409,-0.2431,-0.2262,-0.2249,-0.2116,-0.2091,-0.2099,-0.2396,-0.2396,-0.2397,-0.2397,0,-0.2418,-0.2464,-0.2581,-0.262,-0.2635,-0.271,-0.2669,-0.2698,-0.266,-0.2588,-0.2637,-0.2553,-0.2577,-0.2492,-0.2491,-0.2341,-0.239,-0.227,-0.2213,-0.2158,-0.214,-0.2079,-0.2108,-0.2391,-0.2392,-0.2393,-0.2394,0,-0.2359,-0.2468,-0.2521,-0.262,-0.2627,-0.262,-0.2556,-0.2517,-0.2526,-0.2426,-0.2415,-0.2394,-0.2327,-0.2305,-0.2249,-0.2224,-0.2111,-0.2087,-0.1993,-0.193,-0.1809,-0.1848,-0.1755,-0.1701,-0.1904,-0.19,-0.1897,0,-0.2329,-0.237,-0.245,-0.2442,-0.2469,-0.245,-0.2407,-0.2425,-0.2374,-0.2317,-0.2262,-0.2168,-0.2092,-0.1952,-0.1928,-0.1866,-0.191,-0.1727,-0.1808,-0.1787,-0.179,-0.1833,-0.1801,-0.1671,-0.1666,-0.1662,-0.1659,0,-0.2204,-0.2237,-0.2278,-0.227,-0.2249,-0.2202,-0.2175,-0.2103,-0.2131,-0.2049,-0.1977,-0.1921,-0.1809,-0.1715,-0.1616,-0.1592,-0.1704,-0.1643,-0.1665,-0.1645,-0.165,-0.1573,-0.176,-0.1625,-0.1629,-0.1631,-0.1633,-0.1634,-0.2033,-0.2015,-0.2058,-0.2026,-0.2022,-0.1976,-0.1862,-0.1856,-0.1744,-0.1621,-0.1697,-0.1536,-0.1578,-0.1442,-0.14,-0.132,-0.1408,-0.1325,-0.1376,-0.1424,-0.1382,-0.1467,-0.125,-0.1251,-0.1252,-0.1253,-0.1254,0,-0.1763,-0.1792,-0.1787,-0.176,-0.1692,-0.1762,-0.1698,-0.1574,-0.1418,-0.1343,-0.1243,-0.1184,-0.1141,-0.1172,-0.1172,-0.1108,-0.1115,-0.1093,-0.118,-0.1162,-0.1256,-0.1258,-0.0981,-0.0981,-0.0981,-0.0981,-0.0981,-0.0981,-0.1617,-0.1537,-0.1572,-0.1424,-0.1418,-0.1262,-0.1201,-0.1092,-0.0991,-0.0786,-0.0667,-0.0616,-0.0841,-0.1132,-0.1123,-0.1055,-0.1066,-0.1003,-0.1042,-0.1172,-0.12,-0.1228,-0.1238,-0.0961,-0.0962,-0.0909,-0.0909,-0.0909]},{"header":{"parameterUnit":"m.s-1","parameterCategory":2,"la1":30.2991,"la2":30.254,"lo1":-89.0895,"lo2":-89.0444,"dy":0.0017,"dx":0.0017,"nx":28,"ny":28,"refTime":"2026-02-26T03:00:00:Z","depth":"0","parameterNumber":3,"parameterNumberName":"V-component_of_CURRENTS"},"data":[0,0,0,0,0,0,0,0,0,0,0,0,0,0,0,0,0,0,0,0,0,0,0,0,0,0,0,0,0,0,0,0,0,0,0,0,0,0,0,0,0,0,0,0,0,0,0,0,0,0,0,0,0,0,0,0,0,0,-0.0177,-0.0176,0,-0.0104,-0.0104,-0.0103,-0.0072,-0.0072,-0.0071,-0.0071,0.0002,0.0003,0.0005,0,0,0,0,0,0,0,0,0,0,0,0,0,-0.0522,-0.0515,-0.0178,-0.0176,-0.0175,-0.0105,-0.0104,-0.0103,-0.0072,-0.0072,-0.0071,-0.0071,0.0001,0.0003,0.0005,0,0,0,0,0,0,0,0,0,0,0,0,0,-0.0407,-0.0513,-0.0178,-0.0148,-0.0144,-0.0105,-0.0104,-0.0103,-0.0072,-0.0072,-0.0071,-0.0071,0.0,0.0003,0.0005,0.0013,0,0,0.0013,0.0014,0,0,0,0,0,0,0,0,-0.0413,-0.0394,-0.0153,-0.015,-0.0145,-0.0093,-0.0199,-0.0063,-0.0072,-0.0104,-0.0071,-0.0071,-0.0028,-0.0023,-0.0016,0.0017,0.002,0.0013,0.0015,0.0016,0.0017,0,0,0,0,0,0,0,-0.0421,-0.0399,-0.0153,-0.0152,-0.0147,-0.0218,-0.0199,-0.0174,-0.0072,-0.0101,-0.0097,-0.0083,-0.0026,-0.0018,-0.0014,0.0021,0.0013,0.0015,0.0017,0.0018,0.0023,0.0022,0,0,0,0,0,0,-0.0408,-0.0404,-0.0155,-0.015,-0.0277,-0.021,-0.019,-0.0114,-0.0072,-0.0064,-0.0083,-0.0082,-0.0023,-0.0017,-0.0011,-0.0025,0.0016,0.0018,0.002,0.0024,0.0023,0.0021,0,0,0,0,0,0,-0.0415,-0.0384,-0.0158,-0.0278,-0.0253,-0.0202,-0.0119,-0.0112,-0.0102,-0.0058,-0.0051,-0.0079,-0.0022,-0.0015,-0.0001,-0.0021,0.0019,0.0022,0.0026,0.0024,0.0022,-0.0036,0,0,0,0,0,0,-0.0424,-0.0385,-0.034,-0.0273,-0.0245,-0.015,-0.0119,-0.0111,-0.0092,-0.0089,-0.0052,-0.0045,-0.0022,-0.0005,0.0002,-0.0017,0.0024,0.0028,0.0025,0.0023,-0.0033,-0.004,-0.0047,0,0,0,0,0,-0.0436,-0.0373,-0.0336,-0.0308,-0.0176,-0.015,-0.0144,-0.0113,-0.0092,-0.01,-0.0072,-0.0046,-0.0017,-0.0003,0.0005,-0.0014,0.0029,0.0026,0.0023,-0.003,-0.0039,-0.0046,0,0,0,0,0,0,-0.0493,-0.0361,-0.0321,-0.0216,-0.0192,-0.0143,-0.014,-0.0116,-0.0099,-0.0093,-0.0053,-0.0045,-0.0046,-0.0023,-0.0009,-0.0024,0.0006,0.0004,-0.0037,-0.0045,-0.0052,-0.0058,0.0026,0,0,0,0,0,-0.0481,-0.0397,-0.0317,-0.0241,-0.0228,-0.0186,-0.0171,-0.015,-0.012,-0.0112,-0.0085,-0.0063,-0.0054,-0.0042,-0.0032,-0.0028,0.0012,-0.004,-0.0047,-0.0053,-0.0055,-0.0025,-0.0029,0.0011,0.0011,0.0011,0,0,-0.0477,-0.0399,-0.0348,-0.0251,-0.0226,-0.023,-0.0178,-0.0158,-0.0163,-0.0106,-0.0109,-0.0085,-0.006,-0.0066,-0.0064,-0.0046,-0.004,-0.0057,-0.0062,-0.0061,-0.0029,-0.0033,-0.0036,0.0009,0.0009,0.0009,0,0,-0.0493,-0.0368,-0.0344,-0.0325,-0.0286,-0.0258,-0.0254,-0.0213,-0.0196,-0.0192,-0.0159,-0.0143,-0.0126,-0.0111,-0.0101,-0.0138,-0.0081,-0.0142,-0.0173,-0.0145,-0.0148,-0.0149,-0.0082,-0.0077,-0.0141,-0.0141,-0.0141,0,-0.0509,-0.0435,-0.0348,-0.0355,-0.0336,-0.0276,-0.0291,-0.0273,-0.0236,-0.0217,-0.0206,-0.0172,-0.015,-0.0144,-0.0165,-0.0152,-0.0114,-0.0141,-0.0152,-0.0153,-0.0154,-0.0085,-0.0079,-0.0144,-0.0144,-0.0143,-0.0143,0,-0.0537,-0.0488,-0.0482,-0.0446,-0.0428,-0.042,-0.0381,-0.0366,-0.033,-0.0304,-0.0285,-0.0252,-0.0226,-0.0227,-0.0207,-0.0207,-0.017,-0.0166,-0.0127,-0.0161,-0.0086,-0.0079,-0.0148,-0.0147,-0.0146,-0.0146,0,0,-0.0535,-0.0505,-0.0503,-0.05,-0.0463,-0.0445,-0.0449,-0.0418,-0.0401,-0.0379,-0.0358,-0.0347,-0.0307,-0.0294,-0.0262,-0.0242,-0.021,-0.0213,-0.021,-0.0137,-0.0117,-0.0059,-0.0044,-0.0209,-0.0209,-0.0209,-0.0053,0,-0.0589,-0.0613,-0.0576,-0.0594,-0.0595,-0.0535,-0.0535,-0.0499,-0.0458,-0.0429,-0.0382,-0.036,-0.0339,-0.0319,-0.0299,-0.0231,-0.0198,-0.025,-0.0101,-0.0096,-0.0034,-0.0037,-0.0002,0.0141,-0.0045,-0.0044,-0.0043,0,-0.064,-0.0632,-0.0667,-0.0631,-0.0624,-0.0631,-0.0572,-0.0565,-0.0512,-0.048,-0.0445,-0.0401,-0.0358,-0.0345,-0.0239,-0.0273,-0.0206,-0.0153,-0.0146,-0.0069,-0.0026,0.014,0.0162,0.0296,-0.0031,-0.0032,-0.0033,0,-0.0685,-0.0687,-0.0703,-0.0697,-0.0666,-0.0656,-0.063,-0.058,-0.0556,-0.0507,-0.0479,-0.0422,-0.0375,-0.0307,-0.0192,-0.0216,-0.0064,-0.0076,0.0046,0.0053,0.0124,0.0137,0.0298,-0.0012,-0.0012,-0.0012,-0.0013,0,-0.0741,-0.0746,-0.0723,-0.0731,-0.0719,-0.0686,-0.0669,-0.0633,-0.059,-0.0564,-0.0505,-0.0464,-0.0369,-0.0268,-0.0185,-0.0026,-0.0047,0.005,0.009,0.0107,0.0115,0.0267,0.0309,-0.0007,-0.0008,-0.0009,-0.001,0,-0.0792,-0.0791,-0.0791,-0.0759,-0.0749,-0.0734,-0.0693,-0.0682,-0.0631,-0.0597,-0.0582,-0.0479,-0.0343,-0.0221,-0.0075,0.0007,0.023,0.0193,0.0229,0.0269,0.0482,0.0518,0.072,0.0803,0.035,0.0352,0.0354,0,-0.082,-0.0833,-0.0806,-0.0804,-0.0791,-0.0768,-0.076,-0.0712,-0.0702,-0.0601,-0.059,-0.0447,-0.0334,-0.0069,0.0086,0.0278,0.035,0.0427,0.037,0.0514,0.0583,0.0605,0.066,0.0461,0.0464,0.0466,0.0468,0,-0.0844,-0.0838,-0.0831,-0.0827,-0.0823,-0.0815,-0.0798,-0.0794,-0.0736,-0.0672,-0.0553,-0.0444,-0.0197,0.0042,0.0282,0.0383,0.0535,0.0476,0.0608,0.0672,0.0723,0.0815,0.0368,0.0487,0.0485,0.0484,0.0483,0.0482,-0.0834,-0.0834,-0.0828,-0.0818,-0.0828,-0.0837,-0.0813,-0.0788,-0.0729,-0.0597,-0.051,-0.0262,0.0024,0.0365,0.0482,0.0754,0.0699,0.0832,0.0866,0.0878,0.0943,0.0554,0.0717,0.0717,0.0716,0.0716,0.0715,0,-0.0782,-0.0799,-0.0812,-0.0799,-0.0807,-0.0817,-0.0814,-0.0762,-0.0661,-0.0531,-0.0356,0.0089,0.0395,0.0654,0.0981,0.1139,0.1156,0.1219,0.1254,0.1292,0.0947,0.0935,0.1172,0.1172,0.1172,0.1171,0.1171,0.1171,-0.0748,-0.0748,-0.0762,-0.0756,-0.0764,-0.0738,-0.0725,-0.0639,-0.053,-0.0239,0.0049,0.0255,0.0656,0.1162,0.1478,0.15,0.1642,0.1628,0.1705,0.1457,0.1423,0.139,0.1391,0.172,0.172,0.2042,0.2045,0.2048]}],[{"header":{"parameterUnit":"m.s-1","parameterCategory":2,"la1":30.2991,"la2":30.254,"lo1":-89.0895,"lo2":-89.0444,"dy":0.0017,"dx":0.0017,"nx":28,"ny":28,"refTime":"2026-02-26T03:00:00:Z","depth":"2","parameterNumber":2,"parameterNumberName":"U-component_of_CURRENTS"},"data":[0,0,0,0,0,0,0,0,0,0,0,0,0,0,0,0,0,0,0,0,0,0,0,0,0,0,0,0,0,0,0,0,0,0,0,0,0,0,0,0,0,0,0,0,0,0,0,0,0,0,0,0,0,0,0,0,0,0,-0.1772,-0.1773,0,-0.1836,-0.1837,-0.1838,-0.1838,-0.1836,-0.1835,-0.1834,-0.1871,-0.1873,-0.1875,0,0,0,0,0,0,0,0,0,0,0,0,0,-0.1709,-0.171,-0.1772,-0.1773,-0.1773,-0.1835,-0.1837,-0.1838,-0.1838,-0.1836,-0.1835,-0.1833,-0.187,-0.1873,-0.1876,0,0,0,0,0,0,0,0,0,0,0,0,0,-0.1755,-0.171,-0.1772,-0.1777,-0.1778,-0.1835,-0.1837,-0.1838,-0.1838,-0.1836,-0.1834,-0.1833,-0.187,-0.1873,-0.1876,-0.1933,0,0,-0.1886,-0.1887,0,0,0,0,0,0,0,0,-0.1752,-0.1758,-0.1776,-0.1777,-0.1778,-0.1823,-0.1828,-0.1867,-0.1839,-0.182,-0.1834,-0.1832,-0.1851,-0.1856,-0.1878,-0.1934,-0.1936,-0.1886,-0.1888,-0.1889,-0.189,0,0,0,0,0,0,0,-0.1749,-0.1755,-0.1802,-0.1777,-0.1778,-0.1796,-0.18,-0.1836,-0.1848,-0.1821,-0.1821,-0.1821,-0.1852,-0.1875,-0.1879,-0.1937,-0.1886,-0.1889,-0.1891,-0.1892,-0.2016,-0.2018,0,0,0,0,0,0,-0.1732,-0.1752,-0.18,-0.1803,-0.1755,-0.1798,-0.1803,-0.1814,-0.1848,-0.1851,-0.1823,-0.1821,-0.1871,-0.1875,-0.188,-0.193,-0.1889,-0.1892,-0.1894,-0.2015,-0.2017,-0.2018,0,0,0,0,0,0,-0.173,-0.1736,-0.1797,-0.1775,-0.1783,-0.18,-0.1813,-0.1816,-0.1841,-0.1849,-0.1851,-0.1843,-0.187,-0.1876,-0.1914,-0.1932,-0.1894,-0.1897,-0.2013,-0.2015,-0.2017,-0.2042,0,0,0,0,0,0,-0.1728,-0.1735,-0.1742,-0.1774,-0.1784,-0.1836,-0.1814,-0.1818,-0.1842,-0.184,-0.1867,-0.1869,-0.1869,-0.191,-0.1918,-0.1936,-0.1899,-0.2012,-0.2014,-0.2017,-0.204,-0.2045,-0.205,0,0,0,0,0,-0.1726,-0.1743,-0.1742,-0.1748,-0.1791,-0.1837,-0.1846,-0.1853,-0.1844,-0.1868,-0.1879,-0.1868,-0.1931,-0.1914,-0.1923,-0.1942,-0.201,-0.2013,-0.2016,-0.2038,-0.2044,-0.205,0,0,0,0,0,0,-0.1733,-0.1746,-0.1745,-0.1768,-0.18,-0.1835,-0.1856,-0.1864,-0.1896,-0.1893,-0.1895,-0.1899,-0.1935,-0.1945,-0.1925,-0.1986,-0.1966,-0.1971,-0.1979,-0.1985,-0.199,-0.1949,-0.1902,0,0,0,0,0,-0.1734,-0.1741,-0.1769,-0.1791,-0.1807,-0.1835,-0.1855,-0.1867,-0.1894,-0.1906,-0.1922,-0.1939,-0.1959,-0.1975,-0.1996,-0.2043,-0.2015,-0.2059,-0.2064,-0.2067,-0.2041,-0.2012,-0.201,-0.2028,-0.2028,-0.2028,0,0,-0.1735,-0.1749,-0.175,-0.1791,-0.1816,-0.1846,-0.1845,-0.1885,-0.1904,-0.1907,-0.1943,-0.196,-0.1975,-0.2014,-0.2031,-0.2022,-0.2057,-0.2071,-0.2075,-0.2045,-0.2015,-0.2012,-0.201,-0.203,-0.203,-0.203,0,0,-0.1751,-0.1766,-0.1777,-0.1803,-0.1841,-0.1866,-0.1878,-0.1922,-0.1936,-0.1978,-0.1976,-0.1998,-0.2046,-0.205,-0.2058,-0.2107,-0.2081,-0.2128,-0.2123,-0.2097,-0.2094,-0.209,-0.2081,-0.2077,-0.2133,-0.2133,-0.2133,0,-0.1749,-0.177,-0.1793,-0.1817,-0.183,-0.1873,-0.1895,-0.193,-0.1978,-0.1979,-0.1986,-0.2025,-0.2051,-0.2067,-0.2087,-0.2114,-0.2099,-0.2098,-0.2099,-0.2095,-0.2091,-0.2082,-0.2077,-0.2135,-0.2134,-0.2134,-0.2134,0,-0.177,-0.1789,-0.1807,-0.1838,-0.1865,-0.1899,-0.1936,-0.1967,-0.1986,-0.2,-0.2021,-0.2053,-0.2062,-0.2091,-0.2107,-0.2108,-0.2107,-0.2104,-0.2075,-0.209,-0.2081,-0.2075,-0.2137,-0.2136,-0.2136,-0.2135,0,0,-0.1748,-0.1804,-0.1806,-0.1819,-0.1874,-0.19,-0.1934,-0.1965,-0.1978,-0.201,-0.2011,-0.2052,-0.2054,-0.2063,-0.2091,-0.2082,-0.2074,-0.2088,-0.2086,-0.2063,-0.2024,-0.1956,-0.1943,-0.2068,-0.2067,-0.2066,-0.2037,0,-0.1753,-0.1787,-0.1815,-0.185,-0.187,-0.1906,-0.1936,-0.1966,-0.1993,-0.2015,-0.202,-0.2044,-0.2051,-0.207,-0.2056,-0.2078,-0.2054,-0.2081,-0.2025,-0.2023,-0.1946,-0.1932,-0.18,-0.1756,-0.2031,-0.203,-0.203,0,-0.175,-0.1773,-0.1798,-0.1844,-0.1856,-0.1884,-0.1917,-0.1952,-0.1984,-0.2,-0.1998,-0.2017,-0.2024,-0.2028,-0.2005,-0.2024,-0.2012,-0.2014,-0.2013,-0.1923,-0.1942,-0.1781,-0.1735,-0.2019,-0.202,-0.2021,-0.2022,0,-0.1706,-0.1758,-0.1772,-0.1786,-0.1848,-0.1858,-0.1895,-0.1933,-0.1957,-0.1989,-0.2002,-0.1998,-0.2009,-0.1981,-0.1984,-0.1998,-0.1948,-0.1969,-0.1882,-0.1879,-0.1738,-0.1723,-0.191,-0.191,-0.191,-0.191,-0.191,0,-0.1685,-0.1695,-0.1753,-0.1759,-0.1782,-0.1831,-0.186,-0.1894,-0.1938,-0.1952,-0.1988,-0.1987,-0.1993,-0.1976,-0.1968,-0.1898,-0.1924,-0.1855,-0.1851,-0.1749,-0.1736,-0.1936,-0.1939,-0.1909,-0.1909,-0.1909,-0.1909,0,-0.1621,-0.1665,-0.1685,-0.1742,-0.1762,-0.1772,-0.1842,-0.1858,-0.1913,-0.1931,-0.194,-0.1974,-0.1942,-0.1934,-0.1904,-0.1869,-0.1826,-0.1789,-0.1678,-0.1658,-0.1785,-0.1791,-0.1691,-0.1688,-0.1686,-0.1684,-0.1682,0,-0.1587,-0.1591,-0.165,-0.1661,-0.1686,-0.1721,-0.1744,-0.1825,-0.1843,-0.1906,-0.19,-0.1899,-0.1856,-0.1794,-0.1732,-0.1668,-0.1739,-0.1522,-0.1507,-0.1748,-0.1755,-0.1765,-0.1773,-0.1353,-0.1349,-0.1345,-0.1343,0,-0.1509,-0.1533,-0.1546,-0.1573,-0.16,-0.1631,-0.1673,-0.1689,-0.1768,-0.1787,-0.1783,-0.176,-0.1701,-0.1566,-0.1496,-0.1449,-0.1525,-0.1446,-0.1701,-0.1428,-0.1426,-0.1435,-0.1455,-0.1311,-0.1314,-0.1316,-0.1318,-0.1319,-0.1433,-0.1424,-0.1446,-0.1461,-0.1495,-0.1505,-0.1489,-0.154,-0.1551,-0.1549,-0.1614,-0.1538,-0.1512,-0.132,-0.1242,-0.1189,-0.1296,-0.1253,-0.1265,-0.1281,-0.1246,-0.1239,-0.1083,-0.1085,-0.1087,-0.1088,-0.1089,0,-0.1319,-0.1324,-0.1332,-0.1343,-0.1328,-0.1388,-0.1404,-0.1363,-0.1325,-0.1363,-0.1342,-0.1192,-0.1097,-0.1079,-0.0938,-0.0908,-0.0913,-0.0878,-0.0891,-0.0922,-0.095,-0.09,-0.0645,-0.0644,-0.0642,-0.0641,0,0,-0.1257,-0.1219,-0.1225,-0.1164,-0.117,-0.1107,-0.1086,-0.105,-0.1044,-0.099,-0.0968,-0.1049,-0.1049,-0.0856,-0.0801,-0.0699,-0.0806,-0.0661,-0.1016,-0.1063,-0.109,-0.1162,-0.1118,0,0,0,0,0]},{"header":{"parameterUnit":"m.s-1","parameterCategory":2,"la1":30.2991,"la2":30.254,"lo1":-89.0895,"lo2":-89.0444,"dy":0.0017,"dx":0.0017,"nx":28,"ny":28,"refTime":"2026-02-26T03:00:00:Z","depth":"2","parameterNumber":3,"parameterNumberName":"V-component_of_CURRENTS"},"data":[0,0,0,0,0,0,0,0,0,0,0,0,0,0,0,0,0,0,0,0,0,0,0,0,0,0,0,0,0,0,0,0,0,0,0,0,0,0,0,0,0,0,0,0,0,0,0,0,0,0,0,0,0,0,0,0,0,0,-0.0283,-0.0282,0,-0.0232,-0.0231,-0.023,-0.0191,-0.0191,-0.0191,-0.019,-0.0058,-0.0055,-0.0052,0,0,0,0,0,0,0,0,0,0,0,0,0,-0.0258,-0.0259,-0.0283,-0.0282,-0.0282,-0.0232,-0.0231,-0.023,-0.0191,-0.0191,-0.0191,-0.019,-0.006,-0.0056,-0.0052,0,0,0,0,0,0,0,0,0,0,0,0,0,-0.0243,-0.0259,-0.0283,-0.0257,-0.0254,-0.0232,-0.0231,-0.023,-0.0191,-0.0191,-0.0191,-0.019,-0.0061,-0.0056,-0.0051,-0.0029,0,0,-0.0036,-0.0034,0,0,0,0,0,0,0,0,-0.0244,-0.0244,-0.0262,-0.0259,-0.0256,-0.0218,-0.0174,-0.0159,-0.0191,-0.0214,-0.019,-0.019,-0.0105,-0.0097,-0.0088,-0.0022,-0.0017,-0.0036,-0.0033,-0.0031,-0.0029,0,0,0,0,0,0,0,-0.0245,-0.0245,-0.0261,-0.0261,-0.0258,-0.0218,-0.0216,-0.017,-0.016,-0.0212,-0.0209,-0.0206,-0.0103,-0.0093,-0.0084,-0.0015,-0.0036,-0.0032,-0.0028,-0.0027,0.0092,0.0092,0,0,0,0,0,0,-0.0259,-0.0247,-0.0263,-0.026,-0.025,-0.0219,-0.0217,-0.023,-0.0162,-0.0153,-0.0206,-0.0204,-0.0101,-0.009,-0.0079,-0.0035,-0.0031,-0.0026,-0.0023,0.0092,0.0092,0.0092,0,0,0,0,0,0,-0.0259,-0.0262,-0.0265,-0.0252,-0.025,-0.0221,-0.0235,-0.0229,-0.0218,-0.0159,-0.0147,-0.0201,-0.01,-0.0086,-0.0039,-0.003,-0.0024,-0.0019,0.0092,0.0092,0.0092,0.0044,0,0,0,0,0,0,-0.0259,-0.0263,-0.0272,-0.0254,-0.0251,-0.0256,-0.0235,-0.0228,-0.0216,-0.0213,-0.015,-0.0138,-0.0099,-0.0047,-0.0035,-0.0023,-0.0016,0.0091,0.0092,0.0092,0.0046,0.0043,0.0041,0,0,0,0,0,-0.0259,-0.0279,-0.0274,-0.0275,-0.0268,-0.0256,-0.0251,-0.0227,-0.0217,-0.0215,-0.0171,-0.014,-0.0036,-0.0043,-0.0028,-0.0016,0.0091,0.0092,0.0092,0.0047,0.0043,0.0041,0,0,0,0,0,0,-0.0276,-0.0276,-0.027,-0.0291,-0.0275,-0.025,-0.0247,-0.0231,-0.0197,-0.0191,-0.0136,-0.012,-0.0078,-0.0041,-0.0051,0.0019,0.0033,0.0036,-0.0007,-0.0009,-0.0012,-0.0026,-0.0011,0,0,0,0,0,-0.0286,-0.0299,-0.0287,-0.0301,-0.0298,-0.0273,-0.0264,-0.0249,-0.0219,-0.0204,-0.016,-0.011,-0.0065,-0.0034,0.0008,0.0049,0.0077,0.0067,0.0064,0.0062,0.006,0.0101,0.0102,0.0094,0.0094,0.0094,0,0,-0.0297,-0.0297,-0.0305,-0.0305,-0.0292,-0.0291,-0.0266,-0.0259,-0.025,-0.0193,-0.0164,-0.0119,-0.0058,-0.0016,0.0008,0.0018,0.0079,0.0063,0.006,0.006,0.0102,0.0103,0.0103,0.0094,0.0094,0.0094,0,0,-0.0323,-0.0327,-0.0343,-0.0336,-0.0322,-0.0304,-0.0305,-0.0281,-0.0263,-0.0236,-0.0188,-0.0139,-0.0078,-0.0025,0.0008,0.0019,0.0059,0.0033,0.0018,0.0057,0.0058,0.0059,0.0092,0.0097,0.0038,0.0038,0.0038,0,-0.0333,-0.0357,-0.0343,-0.0353,-0.0349,-0.0315,-0.0324,-0.0301,-0.0262,-0.0243,-0.0235,-0.0136,-0.0082,-0.0017,-0.0011,0.0015,0.0037,0.0023,0.0053,0.0055,0.0057,0.009,0.0096,0.0035,0.0036,0.0036,0.0036,0,-0.0369,-0.0383,-0.0391,-0.0393,-0.0384,-0.0387,-0.0358,-0.034,-0.0317,-0.0288,-0.0234,-0.0166,-0.0104,-0.0077,-0.0038,0.0012,0.0023,0.0038,0.0057,0.0055,0.009,0.0097,0.0032,0.0033,0.0034,0.0034,0,0,-0.0406,-0.0415,-0.0417,-0.0423,-0.0407,-0.0404,-0.0388,-0.0361,-0.0344,-0.0302,-0.0274,-0.019,-0.0151,-0.011,-0.0049,-0.0007,0.0031,0.0019,0.0022,0.0043,0.0112,0.0135,0.0144,0.0048,0.0049,0.005,0.0129,0,-0.0435,-0.0465,-0.0456,-0.0472,-0.0483,-0.045,-0.0437,-0.0404,-0.0367,-0.0329,-0.0256,-0.0206,-0.0163,-0.0127,-0.008,0.0006,0.0047,0.0008,0.0117,0.0121,0.0135,0.0152,0.0139,0.0211,0.0136,0.0137,0.0138,0,-0.0473,-0.0485,-0.0514,-0.0512,-0.0513,-0.0512,-0.0481,-0.0464,-0.04,-0.0371,-0.0311,-0.0253,-0.0167,-0.0142,-0.0012,-0.0042,0.0029,0.0087,0.0092,0.0135,0.0156,0.0203,0.0226,0.0149,0.0148,0.0147,0.0147,0,-0.0508,-0.0524,-0.0546,-0.0549,-0.0541,-0.0539,-0.0526,-0.0477,-0.0459,-0.039,-0.0368,-0.0271,-0.0216,-0.0125,-0.0,-0.0006,0.013,0.0139,0.0225,0.0228,0.025,0.0253,0.0222,0.0222,0.0222,0.0221,0.0221,0,-0.0548,-0.0564,-0.0565,-0.058,-0.0596,-0.0574,-0.0573,-0.0544,-0.0497,-0.0471,-0.0389,-0.034,-0.0212,-0.0114,-0.0012,0.0129,0.0124,0.0227,0.0254,0.0233,0.0234,0.0207,0.0204,0.0224,0.0224,0.0223,0.0223,0,-0.0586,-0.059,-0.0615,-0.0616,-0.0618,-0.0628,-0.0618,-0.0611,-0.0561,-0.0523,-0.0503,-0.0388,-0.0258,-0.0127,0.0035,0.012,0.0249,0.03,0.0264,0.0285,0.0319,0.0313,0.0399,0.0401,0.0402,0.0403,0.0404,0,-0.061,-0.0628,-0.0647,-0.0666,-0.0671,-0.068,-0.0687,-0.065,-0.0638,-0.0543,-0.0527,-0.0396,-0.0285,-0.0048,0.0118,0.0295,0.0294,0.0384,0.0376,0.0323,0.034,0.0331,0.0324,0.0387,0.0388,0.0388,0.0389,0,-0.0645,-0.0651,-0.0671,-0.0713,-0.0733,-0.075,-0.0752,-0.0754,-0.0696,-0.0642,-0.0541,-0.0442,-0.021,-0.0007,0.0213,0.0315,0.0352,0.0402,0.037,0.034,0.0317,0.0332,0.0324,0.0394,0.0394,0.0393,0.0393,0.0393,-0.0665,-0.0689,-0.0717,-0.0754,-0.0783,-0.0808,-0.0816,-0.0799,-0.0764,-0.0666,-0.0562,-0.0389,-0.0195,0.0126,0.0283,0.0422,0.0419,0.0461,0.0457,0.0453,0.0433,0.0413,0.0504,0.0504,0.0505,0.0505,0.0505,0,-0.0686,-0.0714,-0.0755,-0.08,-0.0837,-0.0838,-0.0847,-0.083,-0.0782,-0.0659,-0.0533,-0.0299,-0.0065,0.0127,0.0357,0.0496,0.0478,0.0513,0.0465,0.046,0.0456,0.0433,0.0507,0.0507,0.0507,0.0507,0,0,-0.07,-0.074,-0.0762,-0.0829,-0.0861,-0.0888,-0.0888,-0.084,-0.0752,-0.0619,-0.0479,-0.0295,-0.0048,0.0113,0.0287,0.0406,0.0394,0.0413,0.04,0.032,0.0314,0.0419,0.0379,0,0,0,0,0]}],[{"header":{"parameterUnit":"m.s-1","parameterCategory":2,"la1":30.2991,"la2":30.254,"lo1":-89.0895,"lo2":-89.0444,"dy":0.0017,"dx":0.0017,"nx":28,"ny":28,"refTime":"2026-02-26T03:00:00:Z","depth":"4","parameterNumber":2,"parameterNumberName":"U-component_of_CURRENTS"},"data":[0,0,0,0,0,0,0,0,0,0,0,0,0,0,0,0,0,0,0,0,0,0,0,0,0,0,0,0,0,0,0,0,0,0,0,0,0,0,0,0,0,0,0,0,0,0,0,0,0,0,0,0,0,0,0,0,0,0,-0.1175,-0.1176,0,-0.1227,-0.1228,-0.1228,-0.1252,-0.1252,-0.1252,-0.1253,-0.129,-0.1291,-0.1292,0,0,0,0,0,0,0,0,0,0,0,0,0,-0.1108,-0.1109,-0.1175,-0.1176,-0.1177,-0.1227,-0.1228,-0.1228,-0.1252,-0.1252,-0.1252,-0.1253,-0.129,-0.1291,-0.1292,0,0,0,0,0,0,0,0,0,0,0,0,0,-0.1145,-0.1109,-0.1175,-0.1196,-0.1198,-0.1227,-0.1228,-0.1228,-0.1252,-0.1252,-0.1253,-0.1253,-0.129,-0.1291,-0.1292,-0.1299,0,0,-0.1297,-0.1297,0,0,0,0,0,0,0,0,-0.1143,-0.1147,-0.1192,-0.1194,-0.1197,-0.1234,-0.1218,-0.1252,-0.1252,-0.123,-0.1253,-0.1253,-0.1271,-0.1274,-0.1282,-0.13,-0.1302,-0.1297,-0.1298,-0.1298,-0.1299,0,0,0,0,0,0,0,-0.114,-0.1145,-0.1194,-0.1193,-0.1196,-0.1206,-0.1211,-0.1224,-0.1248,-0.1232,-0.1235,-0.1242,-0.1272,-0.1281,-0.1283,-0.1303,-0.1297,-0.1298,-0.1299,-0.1299,-0.1385,-0.1387,0,0,0,0,0,0,-0.1136,-0.1143,-0.1193,-0.1196,-0.1171,-0.1207,-0.1213,-0.1221,-0.1248,-0.1253,-0.1242,-0.1243,-0.1278,-0.1281,-0.1284,-0.1337,-0.1298,-0.13,-0.13,-0.1384,-0.1386,-0.1387,0,0,0,0,0,0,-0.1134,-0.114,-0.1191,-0.1172,-0.1179,-0.1208,-0.1218,-0.1222,-0.1249,-0.1256,-0.1261,-0.1266,-0.1278,-0.1282,-0.1317,-0.1337,-0.13,-0.1302,-0.1382,-0.1384,-0.1386,-0.1413,0,0,0,0,0,0,-0.1132,-0.1139,-0.1153,-0.1171,-0.118,-0.122,-0.1218,-0.1223,-0.1253,-0.1256,-0.1278,-0.1281,-0.1279,-0.1315,-0.1318,-0.1338,-0.1303,-0.138,-0.1383,-0.1386,-0.141,-0.1416,-0.1421,0,0,0,0,0,-0.1129,-0.1145,-0.1153,-0.116,-0.1195,-0.1221,-0.1227,-0.1247,-0.1255,-0.1271,-0.129,-0.1281,-0.1334,-0.1317,-0.1321,-0.1341,-0.1379,-0.1382,-0.1386,-0.1408,-0.1415,-0.1421,0,0,0,0,0,0,-0.1121,-0.1149,-0.1159,-0.1182,-0.1206,-0.1226,-0.1245,-0.1259,-0.1287,-0.1295,-0.1299,-0.1303,-0.1338,-0.1342,-0.1323,-0.1376,-0.1356,-0.136,-0.1372,-0.1378,-0.1383,-0.1379,-0.1304,0,0,0,0,0,-0.1126,-0.1148,-0.1172,-0.1193,-0.1206,-0.123,-0.1247,-0.1263,-0.1286,-0.1299,-0.1316,-0.1336,-0.1352,-0.1367,-0.1381,-0.1413,-0.1407,-0.143,-0.1435,-0.1439,-0.144,-0.1458,-0.1464,-0.1398,-0.1398,-0.1398,0,0,-0.113,-0.1148,-0.1162,-0.1194,-0.1213,-0.1238,-0.1241,-0.1274,-0.1298,-0.1298,-0.1342,-0.1354,-0.1365,-0.1397,-0.1413,-0.1404,-0.1455,-0.1443,-0.1447,-0.1445,-0.1462,-0.1468,-0.1474,-0.14,-0.14,-0.1399,0,0,-0.1141,-0.1164,-0.1185,-0.1208,-0.1244,-0.1259,-0.1273,-0.1307,-0.1327,-0.1366,-0.1372,-0.1399,-0.143,-0.144,-0.1447,-0.1492,-0.1478,-0.1503,-0.1527,-0.1545,-0.155,-0.1554,-0.1546,-0.155,-0.1508,-0.1508,-0.1508,0,-0.1146,-0.1173,-0.1195,-0.122,-0.1243,-0.1269,-0.1296,-0.132,-0.1363,-0.1385,-0.1386,-0.1441,-0.1447,-0.1481,-0.1495,-0.1501,-0.1503,-0.1499,-0.155,-0.1554,-0.1558,-0.1549,-0.1552,-0.151,-0.151,-0.1509,-0.1509,0,-0.1166,-0.1198,-0.1212,-0.1252,-0.1278,-0.1308,-0.134,-0.1376,-0.1402,-0.1425,-0.1473,-0.1486,-0.1518,-0.1526,-0.1522,-0.1561,-0.1549,-0.1549,-0.1529,-0.1566,-0.1554,-0.1557,-0.1512,-0.1512,-0.1511,-0.1511,0,0,-0.1146,-0.1214,-0.1222,-0.1249,-0.1299,-0.1322,-0.1367,-0.1412,-0.1449,-0.1486,-0.1529,-0.1554,-0.1567,-0.1576,-0.1582,-0.1597,-0.1619,-0.1589,-0.1589,-0.1571,-0.1645,-0.152,-0.1511,-0.1632,-0.1633,-0.1634,-0.1621,0,-0.1156,-0.1207,-0.1239,-0.1292,-0.1318,-0.1363,-0.1403,-0.145,-0.1488,-0.1538,-0.1558,-0.1598,-0.1585,-0.1606,-0.162,-0.1623,-0.1631,-0.1621,-0.1621,-0.162,-0.1496,-0.1512,-0.1637,-0.1623,-0.1624,-0.1625,-0.1625,0,-0.1156,-0.1193,-0.1244,-0.1316,-0.1334,-0.1372,-0.1444,-0.1485,-0.1553,-0.1585,-0.1627,-0.1645,-0.1675,-0.166,-0.1676,-0.1674,-0.1662,-0.1656,-0.1656,-0.153,-0.1501,-0.1582,-0.163,-0.163,-0.1629,-0.1629,-0.1629,0,-0.1117,-0.1194,-0.1236,-0.1261,-0.1344,-0.1383,-0.1431,-0.1502,-0.1543,-0.1618,-0.1651,-0.1692,-0.1709,-0.1716,-0.1693,-0.1697,-0.1697,-0.17,-0.1573,-0.1564,-0.1668,-0.1664,-0.1708,-0.1708,-0.1709,-0.1709,-0.1709,0,-0.1096,-0.1135,-0.1229,-0.1251,-0.1312,-0.1374,-0.1443,-0.1498,-0.1575,-0.1613,-0.1672,-0.169,-0.1726,-0.1726,-0.171,-0.1634,-0.1709,-0.1569,-0.1552,-0.1679,-0.1676,-0.1669,-0.1665,-0.1708,-0.1708,-0.1708,-0.1708,0,-0.1039,-0.1103,-0.1159,-0.1258,-0.1293,-0.1336,-0.1445,-0.1485,-0.1568,-0.1618,-0.1641,-0.1697,-0.1681,-0.169,-0.1688,-0.1631,-0.1592,-0.1548,-0.1666,-0.1657,-0.1444,-0.1442,-0.1408,-0.1404,-0.14,-0.1397,-0.1394,0,-0.1011,-0.1034,-0.1149,-0.1185,-0.1233,-0.1313,-0.136,-0.1466,-0.1501,-0.1597,-0.1599,-0.1625,-0.164,-0.1527,-0.1556,-0.1505,-0.1486,-0.1462,-0.1463,-0.1426,-0.1414,-0.1418,-0.142,-0.1388,-0.1387,-0.1386,-0.1385,0,-0.095,-0.1001,-0.1045,-0.112,-0.1181,-0.1244,-0.1318,-0.1335,-0.1437,-0.1531,-0.1508,-0.1491,-0.1463,-0.1437,-0.1398,-0.137,-0.148,-0.1422,-0.143,-0.1431,-0.1401,-0.1394,-0.1401,-0.1372,-0.1374,-0.1375,-0.1376,0,-0.0901,-0.0917,-0.098,-0.1036,-0.1107,-0.1133,-0.1197,-0.1227,-0.1274,-0.138,-0.1366,-0.139,-0.1443,-0.1365,-0.1337,-0.1287,-0.127,-0.1238,-0.1255,-0.127,-0.1229,-0.1171,-0.1048,0,0,0,0,0,-0.0843,-0.0847,-0.089,-0.0941,-0.1006,-0.1044,-0.1141,-0.1203,-0.1306,-0.125,-0.1304,-0.1271,-0.122,-0.1238,-0.1153,-0.1269,-0.1274,-0.1167,-0.1247,-0.1298,-0.1313,-0.1276,0,0,0,0,0,0,-0.0799,-0.0832,-0.085,-0.0841,-0.0854,-0.091,-0.0963,-0.1041,-0.1021,-0.1127,-0.1099,-0.1184,-0.1146,-0.123,-0.1119,-0.1123,-0.1147,-0.1194,-0.119,-0.1289,-0.1303,-0.1316,-0.1282,0,0,0,0,0]},{"header":{"parameterUnit":"m.s-1","parameterCategory":2,"la1":30.2991,"la2":30.254,"lo1":-89.0895,"lo2":-89.0444,"dy":0.0017,"dx":0.0017,"nx":28,"ny":28,"refTime":"2026-02-26T03:00:00:Z","depth":"4","parameterNumber":3,"parameterNumberName":"V-component_of_CURRENTS"},"data":[0,0,0,0,0,0,0,0,0,0,0,0,0,0,0,0,0,0,0,0,0,0,0,0,0,0,0,0,0,0,0,0,0,0,0,0,0,0,0,0,0,0,0,0,0,0,0,0,0,0,0,0,0,0,0,0,0,0,-0.0227,-0.0227,0,-0.0209,-0.0209,-0.0209,-0.0189,-0.0189,-0.0189,-0.0188,-0.0127,-0.0126,-0.0125,0,0,0,0,0,0,0,0,0,0,0,0,0,-0.0192,-0.0193,-0.0227,-0.0227,-0.0227,-0.0209,-0.0209,-0.0209,-0.0189,-0.0189,-0.0189,-0.0188,-0.0128,-0.0126,-0.0124,0,0,0,0,0,0,0,0,0,0,0,0,0,-0.0195,-0.0194,-0.0227,-0.0215,-0.0213,-0.0209,-0.0209,-0.0209,-0.0189,-0.0189,-0.0189,-0.0188,-0.0128,-0.0126,-0.0124,-0.0121,0,0,-0.0118,-0.0117,0,0,0,0,0,0,0,0,-0.0195,-0.0196,-0.0217,-0.0216,-0.0214,-0.0201,-0.0174,-0.0177,-0.019,-0.0199,-0.0188,-0.0188,-0.0148,-0.0144,-0.0143,-0.0118,-0.0115,-0.0118,-0.0117,-0.0116,-0.0115,0,0,0,0,0,0,0,-0.0195,-0.0196,-0.022,-0.0217,-0.0215,-0.0192,-0.0192,-0.0175,-0.0176,-0.0198,-0.0197,-0.0194,-0.0147,-0.0145,-0.0141,-0.0114,-0.0118,-0.0116,-0.0115,-0.0114,-0.0074,-0.0074,0,0,0,0,0,0,-0.02,-0.0197,-0.0221,-0.022,-0.0203,-0.0193,-0.0193,-0.0206,-0.0177,-0.0172,-0.0195,-0.0193,-0.0149,-0.0144,-0.0139,-0.013,-0.0116,-0.0114,-0.0113,-0.0074,-0.0074,-0.0074,0,0,0,0,0,0,-0.0199,-0.0203,-0.0222,-0.0206,-0.0207,-0.0195,-0.0208,-0.0206,-0.0205,-0.0174,-0.0169,-0.0196,-0.0148,-0.0142,-0.0126,-0.0127,-0.0113,-0.0111,-0.0073,-0.0074,-0.0074,-0.0113,0,0,0,0,0,0,-0.0199,-0.0203,-0.0214,-0.0207,-0.0208,-0.0226,-0.0209,-0.0206,-0.0203,-0.0202,-0.0174,-0.0168,-0.0147,-0.013,-0.0124,-0.0124,-0.011,-0.0073,-0.0073,-0.0074,-0.0112,-0.0115,-0.0117,0,0,0,0,0,-0.0198,-0.0217,-0.0215,-0.0218,-0.0224,-0.0226,-0.0225,-0.0213,-0.0204,-0.0209,-0.0188,-0.0169,-0.0127,-0.0128,-0.0122,-0.0121,-0.0073,-0.0073,-0.0074,-0.011,-0.0114,-0.0117,0,0,0,0,0,0,-0.021,-0.0216,-0.0214,-0.0235,-0.0233,-0.0223,-0.0226,-0.0217,-0.0206,-0.0203,-0.0172,-0.0165,-0.0154,-0.0132,-0.0134,-0.011,-0.0096,-0.0095,-0.0126,-0.0129,-0.0132,-0.0128,-0.0108,0,0,0,0,0,-0.0218,-0.0233,-0.0232,-0.0248,-0.0248,-0.0238,-0.0236,-0.0231,-0.0219,-0.0214,-0.0194,-0.017,-0.0151,-0.0136,-0.012,-0.0106,-0.0071,-0.01,-0.0103,-0.0106,-0.0098,-0.0041,-0.0037,-0.0075,-0.0075,-0.0075,0,0,-0.0227,-0.0232,-0.0241,-0.0251,-0.0247,-0.0253,-0.0236,-0.024,-0.0242,-0.0208,-0.0204,-0.0184,-0.0151,-0.0139,-0.013,-0.0119,-0.0081,-0.0106,-0.0109,-0.0099,-0.0041,-0.0037,-0.0033,-0.0075,-0.0075,-0.0075,0,0,-0.0249,-0.0258,-0.0274,-0.0276,-0.0275,-0.0268,-0.0271,-0.0265,-0.0259,-0.0257,-0.0229,-0.0205,-0.0185,-0.0154,-0.0136,-0.0142,-0.0102,-0.0142,-0.0145,-0.009,-0.0086,-0.0083,-0.005,-0.0043,-0.0137,-0.0137,-0.0137,0,-0.0258,-0.0282,-0.0278,-0.0291,-0.0293,-0.0277,-0.029,-0.0283,-0.0273,-0.0262,-0.0262,-0.0211,-0.0189,-0.0149,-0.0155,-0.0147,-0.0117,-0.0137,-0.0093,-0.0088,-0.0084,-0.0051,-0.0042,-0.0139,-0.0139,-0.0138,-0.0138,0,-0.0289,-0.0306,-0.0315,-0.0326,-0.0328,-0.0338,-0.0328,-0.0324,-0.0315,-0.0301,-0.0273,-0.0238,-0.02,-0.0194,-0.0179,-0.0133,-0.0125,-0.0109,-0.0084,-0.0082,-0.0048,-0.0039,-0.0142,-0.0141,-0.014,-0.014,0,0,-0.0313,-0.0334,-0.0337,-0.0346,-0.0349,-0.0353,-0.0352,-0.0342,-0.0331,-0.0314,-0.0292,-0.0256,-0.0226,-0.0203,-0.0171,-0.0125,-0.0079,-0.0107,-0.0104,-0.0075,0.003,0.0012,0.0021,-0.0053,-0.0051,-0.005,0.0034,0,-0.0336,-0.037,-0.0371,-0.0394,-0.0408,-0.0392,-0.0392,-0.0377,-0.0357,-0.0332,-0.0281,-0.0253,-0.0232,-0.0211,-0.0161,-0.0101,-0.0052,-0.0104,0.0024,0.0028,0.0013,0.0032,-0.0044,0.0041,0.0044,0.0045,0.0047,0,-0.0365,-0.0382,-0.0415,-0.0426,-0.043,-0.0439,-0.0424,-0.0421,-0.0376,-0.0358,-0.0307,-0.0268,-0.0201,-0.0185,-0.0064,-0.0098,-0.0036,0.0013,0.0018,0.0026,0.0029,0.0044,0.0064,0.0063,0.0062,0.0061,0.0059,0,-0.0383,-0.041,-0.0438,-0.0445,-0.0454,-0.0461,-0.0459,-0.0429,-0.0421,-0.0366,-0.0348,-0.0262,-0.0221,-0.0126,-0.0035,-0.0043,0.0096,0.0101,0.0149,0.0147,0.0155,0.0151,0.0202,0.0201,0.0201,0.0201,0.0201,0,-0.0407,-0.0428,-0.0451,-0.0467,-0.0491,-0.0485,-0.0493,-0.0475,-0.0443,-0.0425,-0.0359,-0.0316,-0.0202,-0.0114,-0.0029,0.0084,0.0108,0.0156,0.0176,0.0133,0.0125,0.0161,0.0156,0.0204,0.0203,0.0203,0.0202,0,-0.0424,-0.0442,-0.0474,-0.0495,-0.0505,-0.0521,-0.0532,-0.053,-0.0494,-0.0464,-0.0447,-0.035,-0.0236,-0.0124,0.0028,0.0086,0.0198,0.0236,0.017,0.0183,0.021,0.0201,0.0298,0.0298,0.0299,0.0299,0.0299,0,-0.0436,-0.0457,-0.05,-0.0526,-0.0541,-0.0564,-0.058,-0.0561,-0.0553,-0.0479,-0.0462,-0.0351,-0.0276,-0.0074,0.0038,0.0201,0.0224,0.0273,0.0254,0.0214,0.0224,0.0215,0.0206,0.0299,0.0299,0.0299,0.0299,0,-0.0453,-0.0472,-0.0499,-0.0556,-0.0588,-0.0616,-0.0631,-0.0629,-0.0591,-0.0559,-0.0455,-0.0342,-0.0215,-0.0069,0.0053,0.0171,0.0233,0.0275,0.0276,0.0259,0.0217,0.0224,0.0215,0.03,0.03,0.03,0.03,0,-0.0464,-0.0489,-0.0531,-0.0576,-0.0624,-0.0652,-0.0657,-0.0632,-0.0613,-0.0526,-0.0489,-0.0339,-0.025,-0.0083,0.0034,0.0139,0.0165,0.0192,0.0197,0.0198,0.0137,0.0067,0.0132,0,0,0,0,0,-0.0468,-0.05,-0.0548,-0.06,-0.0648,-0.067,-0.0684,-0.0677,-0.0639,-0.0569,-0.0525,-0.0398,-0.0205,-0.0117,-0.0012,0.002,0.0164,0.0142,0.0192,0.0304,0.0303,0.0247,0,0,0,0,0,0,-0.0475,-0.0521,-0.0546,-0.0607,-0.0646,-0.069,-0.0699,-0.0674,-0.0626,-0.0569,-0.0463,-0.0385,-0.0201,-0.0265,-0.0013,0.002,0.0062,0.0239,0.0241,0.0305,0.0304,0.0303,0.0245,0,0,0,0,0]}]]